Change the Weather History Date:

Wednesday, December 26, 2012

  Actual Average Record
Temperature  
Mean Temperature 50 °F -  
Max Temperature 62 °F 64 °F 78 °F (1980)
Min Temperature 39 °F 40 °F 26 °F (1990)
Degree Days  
Heating Degree Days 14    
Moisture  
Dew Point 29 °F    
Average Humidity 51    
Maximum Humidity 73    
Minimum Humidity 24    
Precipitation  
Precipitation 0.00 in - - ()
Sea Level Pressure  
Sea Level Pressure 29.90 in    
Wind  
Wind Speed 3 mph (ENE)    
Max Wind Speed 8 mph    
Max Gust Speed -    
Visibility 10 miles    
Events      
Averages and records for this station are not official NWS values.
T = Trace of Precipitation, MM = Missing Value Source: NWS Daily Summary

Daily Weather History Graph

Daily Weather History Graph

Search for Another Location

Airport or City:

Trip Planner

Search our weather history database for the weather conditions in past years. The results will help you decide how hot, cold, wet, or windy it might be!

Date:

Astronomy

Dec. 26, 2012 Rise Set
Actual Time 6:41 AM PST 4:37 PM PST
Civil Twilight 6:14 AM PST 5:05 PM PST
Nautical Twilight 5:43 AM PST 5:36 PM PST
Astronomical Twilight 5:12 AM PST 6:06 PM PST
Moon 3:33 PM PST (12/26) 5:09 AM PST (12/26)
Length of Visible Light 10h 51m
Length of Day
9h 56m
Waxing Gibbous, 98% of the Moon is Illuminated
Dec 26
Waxing Gibbous
Dec 28
Full
Jan 4
Last Quarter
Jan 11
New
Jan 18
First Quarter

Hourly Weather History & Observations

Time (PST) Temp. Windchill Dew Point Humidity Pressure Visibility Wind Dir Wind Speed Gust Speed Precip Events Conditions
12:52 AM 39.9 °F 36.7 °F 30.9 °F 70% 29.98 in 10.0 mi ENE 4.6 mph - N/A   Clear
1:52 AM 42.1 °F - 28.0 °F 58% 29.96 in 10.0 mi Calm Calm - N/A   Clear
2:52 AM 41.0 °F - 28.0 °F 60% 29.93 in 10.0 mi Calm Calm - N/A   Clear
3:52 AM 41.0 °F - 28.9 °F 62% 29.91 in 10.0 mi Calm Calm - N/A   Clear
4:52 AM 39.0 °F - 30.9 °F 73% 29.91 in 10.0 mi Calm Calm - N/A   Clear
5:52 AM 39.9 °F 37.8 °F 28.9 °F 65% 29.91 in 10.0 mi ESE 3.5 mph - N/A   Clear
6:52 AM 39.0 °F 36.8 °F 28.9 °F 67% 29.93 in 10.0 mi ESE 3.5 mph - N/A   Clear
7:52 AM 39.9 °F - 30.9 °F 70% 29.93 in 10.0 mi Calm Calm - N/A   Clear
8:52 AM 44.1 °F 40.1 °F 30.9 °F 60% 29.94 in 10.0 mi ENE 6.9 mph - N/A   Clear
9:52 AM 48.0 °F - 30.0 °F 50% 29.94 in 10.0 mi Calm Calm - N/A   Clear
10:52 AM 52.0 °F - 26.1 °F 37% 29.92 in 10.0 mi Calm Calm - N/A   Clear
11:52 AM 55.9 °F - 25.0 °F 30% 29.87 in 10.0 mi Calm Calm - N/A   Clear
12:52 PM 59.0 °F - 21.9 °F 24% 29.85 in 10.0 mi South 6.9 mph - N/A   Mostly Cloudy
1:52 PM 61.0 °F - 25.0 °F 25% 29.83 in 10.0 mi ESE 4.6 mph - N/A   Scattered Clouds
3:52 PM 62.1 °F - 27.0 °F 26% 29.83 in 10.0 mi North 8.1 mph - N/A   Clear
4:52 PM 55.9 °F - 27.0 °F 33% 29.84 in 10.0 mi North 5.8 mph - N/A   Clear
5:52 PM 54.0 °F - 27.0 °F 35% 29.87 in 10.0 mi Calm Calm - N/A   Clear
6:52 PM 50.0 °F - 30.9 °F 48% 29.88 in 10.0 mi East 6.9 mph - N/A   Clear
7:52 PM 48.0 °F - 32.0 °F 54% 29.89 in 10.0 mi SE 3.5 mph - N/A   Clear
8:52 PM 46.9 °F - 30.9 °F 54% 29.90 in 10.0 mi Calm Calm - N/A   Clear
9:52 PM 44.1 °F 42.5 °F 30.9 °F 60% 29.91 in 10.0 mi NNE 3.5 mph - N/A   Clear
10:52 PM 44.1 °F - 30.0 °F 58% 29.92 in 10.0 mi Calm Calm - N/A   Clear
11:52 PM 42.1 °F 40.2 °F 30.9 °F 65% 29.90 in 10.0 mi NW 3.5 mph - N/A   Clear